Year,Month,Day,Hour,Minute,Value (Times are PST for temperature in C)
2017,05,29,00,00,18.60
2017,05,29,00,01,18.50
2017,05,29,00,02,18.50
2017,05,29,00,03,18.40
2017,05,29,00,04,18.30
2017,05,29,00,05,18.30
2017,05,29,00,06,18.20
2017,05,29,00,07,18.20
2017,05,29,00,08,18.20
2017,05,29,00,09,18.10
2017,05,29,00,10,18.10
2017,05,29,00,11,18.10
2017,05,29,00,12,18.00
2017,05,29,00,13,17.90
2017,05,29,00,14,17.90
2017,05,29,00,15,17.90
2017,05,29,00,16,17.90
2017,05,29,00,17,17.90
2017,05,29,00,18,17.90
2017,05,29,00,19,17.90
2017,05,29,00,20,17.80
2017,05,29,00,21,17.80
2017,05,29,00,22,17.80
2017,05,29,00,23,17.70
2017,05,29,00,24,17.70
2017,05,29,00,25,17.60
2017,05,29,00,26,17.60
2017,05,29,00,27,17.60
2017,05,29,00,28,17.50
2017,05,29,00,29,17.50
2017,05,29,00,30,17.50
2017,05,29,00,31,17.50
2017,05,29,00,32,17.50
2017,05,29,00,33,17.50
2017,05,29,00,34,17.40
2017,05,29,00,35,17.40
2017,05,29,00,36,17.40
2017,05,29,00,37,17.40
2017,05,29,00,38,17.30
2017,05,29,00,39,17.30
2017,05,29,00,40,17.30
2017,05,29,00,41,17.30
2017,05,29,00,42,17.30
2017,05,29,00,43,17.30
2017,05,29,00,44,17.30
2017,05,29,00,45,17.30
2017,05,29,00,46,17.30
2017,05,29,00,47,17.30
2017,05,29,00,48,17.30
2017,05,29,00,49,17.30
2017,05,29,00,50,17.30
2017,05,29,00,51,17.30
2017,05,29,00,52,17.30
2017,05,29,00,53,17.30
2017,05,29,00,54,17.30
2017,05,29,00,55,17.30
2017,05,29,00,56,17.30
2017,05,29,00,57,17.30
2017,05,29,00,58,17.30
2017,05,29,00,59,17.30
2017,05,29,01,00,17.30
2017,05,29,01,01,17.30
2017,05,29,01,02,17.30
2017,05,29,01,03,17.30
2017,05,29,01,04,17.30
2017,05,29,01,05,17.30
2017,05,29,01,06,17.30
2017,05,29,01,07,17.30
2017,05,29,01,08,17.30
2017,05,29,01,09,17.30
2017,05,29,01,10,17.30
2017,05,29,01,11,17.30
2017,05,29,01,12,17.30
2017,05,29,01,13,17.30
2017,05,29,01,14,17.40
2017,05,29,01,15,17.40
2017,05,29,01,16,17.40
2017,05,29,01,17,17.40
2017,05,29,01,18,17.50
2017,05,29,01,19,17.50
2017,05,29,01,20,17.40
2017,05,29,01,21,17.40
2017,05,29,01,22,17.40
2017,05,29,01,23,17.40
2017,05,29,01,24,17.40
2017,05,29,01,25,17.40
2017,05,29,01,26,17.40
2017,05,29,01,27,17.40
2017,05,29,01,28,17.30
2017,05,29,01,29,17.30
2017,05,29,01,30,17.30
2017,05,29,01,31,17.30
2017,05,29,01,32,17.30
2017,05,29,01,33,17.30
2017,05,29,01,34,17.30
2017,05,29,01,35,17.20
2017,05,29,01,36,17.30
2017,05,29,01,37,17.30
2017,05,29,01,38,17.30
2017,05,29,01,39,17.30
2017,05,29,01,40,17.30
2017,05,29,01,41,17.40
2017,05,29,01,42,17.40
2017,05,29,01,43,17.40
2017,05,29,01,44,17.40
2017,05,29,01,45,17.40
2017,05,29,01,46,17.40
2017,05,29,01,47,17.40
2017,05,29,01,48,17.40
2017,05,29,01,49,17.30
2017,05,29,01,50,17.30
2017,05,29,01,51,17.30
2017,05,29,01,52,17.30
2017,05,29,01,53,17.30
2017,05,29,01,54,17.20
2017,05,29,01,55,17.20
2017,05,29,01,56,17.20
2017,05,29,01,57,17.20
2017,05,29,01,58,17.20
2017,05,29,01,59,17.20
2017,05,29,02,00,17.20
2017,05,29,02,01,17.20
2017,05,29,02,02,17.30
2017,05,29,02,03,17.30
2017,05,29,02,04,17.30
2017,05,29,02,05,17.30
2017,05,29,02,06,17.40
2017,05,29,02,07,17.50
2017,05,29,02,08,17.60
2017,05,29,02,09,17.60
2017,05,29,02,10,17.70
2017,05,29,02,11,17.70
2017,05,29,02,12,17.70
2017,05,29,02,13,17.70
2017,05,29,02,14,17.70
2017,05,29,02,15,17.70
2017,05,29,02,16,17.70
2017,05,29,02,17,17.70
2017,05,29,02,18,17.60
2017,05,29,02,19,17.60
2017,05,29,02,20,17.60
2017,05,29,02,21,17.60
2017,05,29,02,22,17.60
2017,05,29,02,23,17.60
2017,05,29,02,24,17.60
2017,05,29,02,25,17.60
2017,05,29,02,26,17.60
2017,05,29,02,27,17.60
2017,05,29,02,28,17.60
2017,05,29,02,29,17.60
2017,05,29,02,30,17.60
2017,05,29,02,31,17.60
2017,05,29,02,32,17.60
2017,05,29,02,33,17.60
2017,05,29,02,34,17.60
2017,05,29,02,35,17.60
2017,05,29,02,36,17.60
2017,05,29,02,37,17.60
2017,05,29,02,38,17.60
2017,05,29,02,39,17.60
2017,05,29,02,40,17.60
2017,05,29,02,41,17.60
2017,05,29,02,42,17.60
2017,05,29,02,43,17.60
2017,05,29,02,44,17.60
2017,05,29,02,45,17.60
2017,05,29,02,46,17.50
2017,05,29,02,47,17.50
2017,05,29,02,48,17.50
2017,05,29,02,49,17.40
2017,05,29,02,50,17.40
2017,05,29,02,51,17.30
2017,05,29,02,52,17.30
2017,05,29,02,53,17.30
2017,05,29,02,54,17.30
2017,05,29,02,55,17.30
2017,05,29,02,56,17.30
2017,05,29,02,57,17.30
2017,05,29,02,58,17.20
2017,05,29,02,59,17.20
2017,05,29,03,00,17.20
2017,05,29,03,01,17.20
2017,05,29,03,02,17.20
2017,05,29,03,03,17.20
2017,05,29,03,04,17.20
2017,05,29,03,05,17.20
2017,05,29,03,06,17.10
2017,05,29,03,07,17.10
2017,05,29,03,08,17.10
2017,05,29,03,09,17.10
2017,05,29,03,10,17.00
2017,05,29,03,11,17.00
2017,05,29,03,12,17.00
2017,05,29,03,13,17.00
2017,05,29,03,14,17.00
2017,05,29,03,15,17.00
2017,05,29,03,16,17.00
2017,05,29,03,17,17.00
2017,05,29,03,18,17.00
2017,05,29,03,19,17.00
2017,05,29,03,20,17.00
2017,05,29,03,21,17.00
2017,05,29,03,22,16.90
2017,05,29,03,23,16.90
2017,05,29,03,24,16.90
2017,05,29,03,25,16.90
2017,05,29,03,26,16.90
2017,05,29,03,27,17.00
2017,05,29,03,28,17.00
2017,05,29,03,29,17.00
2017,05,29,03,30,17.00
2017,05,29,03,31,17.10
2017,05,29,03,32,17.10
2017,05,29,03,33,17.20
2017,05,29,03,34,17.20
2017,05,29,03,35,17.30
2017,05,29,03,36,17.30
2017,05,29,03,37,17.30
2017,05,29,03,38,17.40
2017,05,29,03,39,17.40
2017,05,29,03,40,17.50
2017,05,29,03,41,17.50
2017,05,29,03,42,17.50
2017,05,29,03,43,17.50
2017,05,29,03,44,17.50
2017,05,29,03,45,17.50
2017,05,29,03,46,17.50
2017,05,29,03,47,17.50
2017,05,29,03,48,17.40
2017,05,29,03,49,17.40
2017,05,29,03,50,17.30
2017,05,29,03,51,17.30
2017,05,29,03,52,17.30
2017,05,29,03,53,17.30
2017,05,29,03,54,17.20
2017,05,29,03,55,17.20
2017,05,29,03,56,17.10
2017,05,29,03,57,17.10
2017,05,29,03,58,17.00
2017,05,29,03,59,17.00
2017,05,29,04,00,16.90
2017,05,29,04,01,16.90
2017,05,29,04,02,16.90
2017,05,29,04,03,16.80
2017,05,29,04,04,16.80
2017,05,29,04,05,16.70
2017,05,29,04,06,16.70
2017,05,29,04,07,16.70
2017,05,29,04,08,16.70
2017,05,29,04,09,16.60
2017,05,29,04,10,16.60
2017,05,29,04,11,16.50
2017,05,29,04,12,16.40
2017,05,29,04,13,16.40
2017,05,29,04,14,16.40
2017,05,29,04,15,16.40
2017,05,29,04,16,16.30
2017,05,29,04,17,16.30
2017,05,29,04,18,16.30
2017,05,29,04,19,16.30
2017,05,29,04,20,16.30
2017,05,29,04,21,16.30
2017,05,29,04,22,16.30
2017,05,29,04,23,16.30
2017,05,29,04,24,16.30
2017,05,29,04,25,16.30
2017,05,29,04,26,16.30
2017,05,29,04,27,16.30
2017,05,29,04,28,16.30
2017,05,29,04,29,16.30
2017,05,29,04,30,16.30
2017,05,29,04,31,16.30
2017,05,29,04,32,16.20
2017,05,29,04,33,16.20
2017,05,29,04,34,16.20
2017,05,29,04,35,16.20
2017,05,29,04,36,16.20
2017,05,29,04,37,16.20
2017,05,29,04,38,16.20
2017,05,29,04,39,16.20
2017,05,29,04,40,16.20
2017,05,29,04,41,16.30
2017,05,29,04,42,16.30
2017,05,29,04,43,16.40
2017,05,29,04,44,16.40
2017,05,29,04,45,16.50
2017,05,29,04,46,16.60
2017,05,29,04,47,16.60
2017,05,29,04,48,16.60
2017,05,29,04,49,16.70
2017,05,29,04,50,16.70
2017,05,29,04,51,16.70
2017,05,29,04,52,16.70
2017,05,29,04,53,16.80
2017,05,29,04,54,16.80
2017,05,29,04,55,16.90
2017,05,29,04,56,16.90
2017,05,29,04,57,16.90
2017,05,29,04,58,16.90
2017,05,29,04,59,16.90
2017,05,29,05,00,16.90
2017,05,29,05,01,16.80
2017,05,29,05,02,16.70
2017,05,29,05,03,16.60
2017,05,29,05,04,16.50
2017,05,29,05,05,16.40
2017,05,29,05,06,16.30
2017,05,29,05,07,16.20
2017,05,29,05,08,16.10
2017,05,29,05,09,16.00
2017,05,29,05,10,15.90
2017,05,29,05,11,15.80
2017,05,29,05,12,15.80
2017,05,29,05,13,15.70
2017,05,29,05,14,15.70
2017,05,29,05,15,15.60
2017,05,29,05,16,15.60
2017,05,29,05,17,15.60
2017,05,29,05,18,15.50
2017,05,29,05,19,15.50
2017,05,29,05,20,15.50
2017,05,29,05,21,15.40
2017,05,29,05,22,15.40
2017,05,29,05,23,15.40
2017,05,29,05,24,15.30
2017,05,29,05,25,15.30
2017,05,29,05,26,15.30
2017,05,29,05,27,15.30
2017,05,29,05,28,15.30
2017,05,29,05,29,15.30
2017,05,29,05,30,15.20
2017,05,29,05,31,15.20
2017,05,29,05,32,15.20
2017,05,29,05,33,15.20
2017,05,29,05,34,15.20
2017,05,29,05,35,15.20
2017,05,29,05,36,15.20
2017,05,29,05,37,15.20
2017,05,29,05,38,15.20
2017,05,29,05,39,15.20
2017,05,29,05,40,15.30
2017,05,29,05,41,15.30
2017,05,29,05,42,15.30
2017,05,29,05,43,15.30
2017,05,29,05,44,15.30
2017,05,29,05,45,15.30
2017,05,29,05,46,15.30
2017,05,29,05,47,15.30
2017,05,29,05,48,15.30
2017,05,29,05,49,15.30
2017,05,29,05,50,15.30
2017,05,29,05,51,15.30
2017,05,29,05,52,15.30
2017,05,29,05,53,15.20
2017,05,29,05,54,15.20
2017,05,29,05,55,15.20
2017,05,29,05,56,15.20
2017,05,29,05,57,15.20
2017,05,29,05,58,15.20
2017,05,29,05,59,15.20
2017,05,29,06,00,15.20
2017,05,29,06,01,15.20
2017,05,29,06,02,15.20
2017,05,29,06,03,15.20
2017,05,29,06,04,15.20
2017,05,29,06,05,15.20
2017,05,29,06,06,15.30
2017,05,29,06,07,15.30
2017,05,29,06,08,15.30
2017,05,29,06,09,15.30
2017,05,29,06,10,15.30
2017,05,29,06,11,15.30
2017,05,29,06,12,15.30
2017,05,29,06,13,15.30
2017,05,29,06,14,15.30
2017,05,29,06,15,15.30
2017,05,29,06,16,15.40
2017,05,29,06,17,15.40
2017,05,29,06,18,15.40
2017,05,29,06,19,15.40
2017,05,29,06,20,15.40
2017,05,29,06,21,15.40
2017,05,29,06,22,15.40
2017,05,29,06,23,15.50
2017,05,29,06,24,15.50
2017,05,29,06,25,15.60
2017,05,29,06,26,15.60
2017,05,29,06,27,15.70
2017,05,29,06,28,15.70
2017,05,29,06,29,15.80
2017,05,29,06,30,15.80
2017,05,29,06,31,15.80
2017,05,29,06,32,15.90
2017,05,29,06,33,16.00
2017,05,29,06,34,16.10
2017,05,29,06,35,16.10
2017,05,29,06,36,16.20
2017,05,29,06,37,16.30
2017,05,29,06,38,16.30
2017,05,29,06,39,16.40
2017,05,29,06,40,16.50
2017,05,29,06,41,16.60
2017,05,29,06,42,16.70
2017,05,29,06,43,16.70
2017,05,29,06,44,16.90
2017,05,29,06,45,16.90
2017,05,29,06,46,17.00
2017,05,29,06,47,17.10
2017,05,29,06,48,17.20
2017,05,29,06,49,17.30
2017,05,29,06,50,17.30
2017,05,29,06,51,17.30
2017,05,29,06,52,17.40
2017,05,29,06,53,17.50
2017,05,29,06,54,17.60
2017,05,29,06,55,17.70
2017,05,29,06,56,17.70
2017,05,29,06,57,17.80
2017,05,29,06,58,17.90
2017,05,29,06,59,18.00
2017,05,29,07,00,18.10
2017,05,29,07,01,18.20
2017,05,29,07,02,18.30
2017,05,29,07,03,18.40
2017,05,29,07,04,18.40
2017,05,29,07,05,18.50
2017,05,29,07,06,18.50
2017,05,29,07,07,18.60
2017,05,29,07,08,18.60
2017,05,29,07,09,18.60
2017,05,29,07,10,18.70
2017,05,29,07,11,18.70
2017,05,29,07,12,18.70
2017,05,29,07,13,18.70
2017,05,29,07,14,18.80
2017,05,29,07,15,18.80
2017,05,29,07,16,18.80
2017,05,29,07,17,18.80
2017,05,29,07,18,18.80
2017,05,29,07,19,18.90
2017,05,29,07,20,18.90
2017,05,29,07,21,18.90
2017,05,29,07,22,18.90
2017,05,29,07,23,18.90
2017,05,29,07,24,19.00
2017,05,29,07,25,19.10
2017,05,29,07,26,19.10
2017,05,29,07,27,19.10
2017,05,29,07,28,19.20
2017,05,29,07,29,19.30
2017,05,29,07,30,19.30
2017,05,29,07,31,19.40
2017,05,29,07,32,19.50
2017,05,29,07,33,19.60
2017,05,29,07,34,19.60
2017,05,29,07,35,19.60
2017,05,29,07,36,19.60
2017,05,29,07,37,19.60
2017,05,29,07,38,19.60
2017,05,29,07,39,19.60
2017,05,29,07,40,19.60
2017,05,29,07,41,19.60
2017,05,29,07,42,19.60
2017,05,29,07,43,19.70
2017,05,29,07,44,19.80
2017,05,29,07,45,19.80
2017,05,29,07,46,19.90
2017,05,29,07,47,20.10
2017,05,29,07,48,20.20
2017,05,29,07,49,20.20
2017,05,29,07,50,20.20
2017,05,29,07,51,20.30
2017,05,29,07,52,20.30
2017,05,29,07,53,20.30
2017,05,29,07,54,20.30
2017,05,29,07,55,20.30
2017,05,29,07,56,20.30
2017,05,29,07,57,20.30
2017,05,29,07,58,20.30
2017,05,29,07,59,20.30
2017,05,29,08,00,20.20
2017,05,29,08,01,20.20
2017,05,29,08,02,20.20
2017,05,29,08,03,20.20
2017,05,29,08,04,20.20
2017,05,29,08,05,20.10
2017,05,29,08,06,20.00
2017,05,29,08,07,19.90
2017,05,29,08,08,20.00
2017,05,29,08,09,20.10
2017,05,29,08,10,20.20
2017,05,29,08,11,20.20
2017,05,29,08,12,20.30
2017,05,29,08,13,20.40
2017,05,29,08,14,20.40
2017,05,29,08,15,20.40
2017,05,29,08,16,20.40
2017,05,29,08,17,20.40
2017,05,29,08,18,20.30
2017,05,29,08,19,20.40
2017,05,29,08,20,20.40
2017,05,29,08,21,20.40
2017,05,29,08,22,20.30
2017,05,29,08,23,20.20
2017,05,29,08,24,20.20
2017,05,29,08,25,20.20
2017,05,29,08,26,20.20
2017,05,29,08,27,20.20
2017,05,29,08,28,20.20
2017,05,29,08,29,20.20
2017,05,29,08,30,20.20
2017,05,29,08,31,20.20
2017,05,29,08,32,20.20
2017,05,29,08,33,20.20
2017,05,29,08,34,20.20
2017,05,29,08,35,20.20
2017,05,29,08,36,20.20
2017,05,29,08,37,20.20
2017,05,29,08,38,20.20
2017,05,29,08,39,20.20
2017,05,29,08,40,20.30
2017,05,29,08,41,20.30
2017,05,29,08,42,20.30
2017,05,29,08,43,20.30
2017,05,29,08,44,20.30
2017,05,29,08,45,20.20
2017,05,29,08,46,20.20
2017,05,29,08,47,20.20
2017,05,29,08,48,20.20
2017,05,29,08,49,20.20
2017,05,29,08,50,20.20
2017,05,29,08,51,20.20
2017,05,29,08,52,20.20
2017,05,29,08,53,20.20
2017,05,29,08,54,20.20
2017,05,29,08,55,20.20
2017,05,29,08,56,20.20
2017,05,29,08,57,20.30
2017,05,29,08,58,20.30
2017,05,29,08,59,20.30
2017,05,29,09,00,20.20
2017,05,29,09,01,20.20
2017,05,29,09,02,20.20
2017,05,29,09,03,20.20
2017,05,29,09,04,20.20
2017,05,29,09,05,20.20
2017,05,29,09,06,20.10
2017,05,29,09,07,20.10
2017,05,29,09,08,20.10
2017,05,29,09,09,20.00
2017,05,29,09,10,20.00
2017,05,29,09,11,19.90
2017,05,29,09,12,19.90
2017,05,29,09,13,20.00
2017,05,29,09,14,20.10
2017,05,29,09,15,20.10
2017,05,29,09,16,20.10
2017,05,29,09,17,20.20
2017,05,29,09,18,20.20
2017,05,29,09,19,20.10
2017,05,29,09,20,20.00
2017,05,29,09,21,19.90
2017,05,29,09,22,19.90
2017,05,29,09,23,19.90
2017,05,29,09,24,19.90
2017,05,29,09,25,19.90
2017,05,29,09,26,19.90
2017,05,29,09,27,20.00
2017,05,29,09,28,20.10
2017,05,29,09,29,20.00
2017,05,29,09,30,20.00
2017,05,29,09,31,20.10
2017,05,29,09,32,20.10
2017,05,29,09,33,19.90
2017,05,29,09,34,19.90
2017,05,29,09,35,20.00
2017,05,29,09,36,20.10
2017,05,29,09,37,20.10
2017,05,29,09,38,20.10
2017,05,29,09,39,20.00
2017,05,29,09,40,20.00
2017,05,29,09,41,20.10
2017,05,29,09,42,20.20
2017,05,29,09,43,20.20
2017,05,29,09,44,20.20
2017,05,29,09,45,20.10
2017,05,29,09,46,20.00
2017,05,29,09,47,19.90
2017,05,29,09,48,19.90
2017,05,29,09,49,20.00
2017,05,29,09,50,20.10
2017,05,29,09,51,20.20
2017,05,29,09,52,20.20
2017,05,29,09,53,20.40
2017,05,29,09,54,20.40
2017,05,29,09,55,20.50
2017,05,29,09,56,20.60
2017,05,29,09,57,20.60
2017,05,29,09,58,20.50
2017,05,29,09,59,20.50
2017,05,29,10,00,20.50
2017,05,29,10,01,20.40
2017,05,29,10,02,20.30
2017,05,29,10,03,20.20
2017,05,29,10,04,20.20
2017,05,29,10,05,20.20
2017,05,29,10,06,20.20
2017,05,29,10,07,20.20
2017,05,29,10,08,20.30
2017,05,29,10,09,20.40
2017,05,29,10,10,20.40
2017,05,29,10,11,20.50
2017,05,29,10,12,20.50
2017,05,29,10,13,20.60
2017,05,29,10,14,20.70
2017,05,29,10,15,20.70
2017,05,29,10,16,20.70
2017,05,29,10,17,20.80
2017,05,29,10,18,20.90
2017,05,29,10,19,20.80
2017,05,29,10,20,20.80
2017,05,29,10,21,20.90
2017,05,29,10,22,20.90
2017,05,29,10,23,20.90
2017,05,29,10,24,21.00
2017,05,29,10,25,21.10
2017,05,29,10,26,21.20
2017,05,29,10,27,21.30
2017,05,29,10,28,21.30
2017,05,29,10,29,21.30
2017,05,29,10,30,21.40
2017,05,29,10,31,21.40
2017,05,29,10,32,21.30
2017,05,29,10,33,21.30
2017,05,29,10,34,21.30
2017,05,29,10,35,21.30
2017,05,29,10,36,21.20
2017,05,29,10,37,21.10
2017,05,29,10,38,21.10
2017,05,29,10,39,21.10
2017,05,29,10,40,21.10
2017,05,29,10,41,21.20
2017,05,29,10,42,21.20
2017,05,29,10,43,21.20
2017,05,29,10,44,21.30
2017,05,29,10,45,21.30
2017,05,29,10,46,21.40
2017,05,29,10,47,21.40
2017,05,29,10,48,21.50
2017,05,29,10,49,21.60
2017,05,29,10,50,21.60
2017,05,29,10,51,21.50
2017,05,29,10,52,21.40
2017,05,29,10,53,21.40
2017,05,29,10,54,21.50
2017,05,29,10,55,21.60
2017,05,29,10,56,21.60
2017,05,29,10,57,21.50
2017,05,29,10,58,21.40
2017,05,29,10,59,21.50
2017,05,29,11,00,21.60
2017,05,29,11,01,21.60
2017,05,29,11,02,21.60
2017,05,29,11,03,21.60
2017,05,29,11,04,21.70
2017,05,29,11,05,21.80
2017,05,29,11,06,21.90
2017,05,29,11,07,21.90
2017,05,29,11,08,21.90
2017,05,29,11,09,21.90
2017,05,29,11,10,22.00
2017,05,29,11,11,22.00
2017,05,29,11,12,21.90
2017,05,29,11,13,22.00
2017,05,29,11,14,22.10
2017,05,29,11,15,22.10
2017,05,29,11,16,22.20
2017,05,29,11,17,22.10
2017,05,29,11,18,22.00
2017,05,29,11,19,22.00
2017,05,29,11,20,22.00
2017,05,29,11,21,22.10
2017,05,29,11,22,22.10
2017,05,29,11,23,22.20
2017,05,29,11,24,22.20
2017,05,29,11,25,22.20
2017,05,29,11,26,22.20
2017,05,29,11,27,22.20
2017,05,29,11,28,22.20
2017,05,29,11,29,22.10
2017,05,29,11,30,22.20
2017,05,29,11,31,22.30
2017,05,29,11,32,22.40
2017,05,29,11,33,22.40
2017,05,29,11,34,22.30
2017,05,29,11,35,22.20
2017,05,29,11,36,22.20
2017,05,29,11,37,22.30
2017,05,29,11,38,22.40
2017,05,29,11,39,22.40
2017,05,29,11,40,22.40
2017,05,29,11,41,22.40
2017,05,29,11,42,22.50
2017,05,29,11,43,22.60
2017,05,29,11,44,22.60
2017,05,29,11,45,22.70
2017,05,29,11,46,22.80
2017,05,29,11,47,22.90
2017,05,29,11,48,22.90
2017,05,29,11,49,22.90
2017,05,29,11,50,23.10
2017,05,29,11,51,23.20
2017,05,29,11,52,23.20
2017,05,29,11,53,23.10
2017,05,29,11,54,23.00
2017,05,29,11,55,22.90
2017,05,29,11,56,22.90
2017,05,29,11,57,22.90
2017,05,29,11,58,22.90
2017,05,29,11,59,22.90
2017,05,29,12,00,22.90
2017,05,29,12,01,22.90
2017,05,29,12,02,23.10
2017,05,29,12,03,23.20
2017,05,29,12,04,23.20
2017,05,29,12,05,23.30
2017,05,29,12,06,23.30
2017,05,29,12,07,23.40
2017,05,29,12,08,23.40
2017,05,29,12,09,23.40
2017,05,29,12,10,23.30
2017,05,29,12,11,23.30
2017,05,29,12,12,23.30
2017,05,29,12,13,23.30
2017,05,29,12,14,23.30
2017,05,29,12,15,23.10
2017,05,29,12,16,23.00
2017,05,29,12,17,22.90
2017,05,29,12,18,22.90
2017,05,29,12,19,23.00
2017,05,29,12,20,23.00
2017,05,29,12,21,22.90
2017,05,29,12,22,22.90
2017,05,29,12,23,22.80
2017,05,29,12,24,22.70
2017,05,29,12,25,22.70
2017,05,29,12,26,22.60
2017,05,29,12,27,22.60
2017,05,29,12,28,22.50
2017,05,29,12,29,22.50
2017,05,29,12,30,22.60
2017,05,29,12,31,22.70
2017,05,29,12,32,22.80
2017,05,29,12,33,22.80
2017,05,29,12,34,22.70
2017,05,29,12,35,22.60
2017,05,29,12,36,22.50
2017,05,29,12,37,22.30
2017,05,29,12,38,22.20
2017,05,29,12,39,22.20
2017,05,29,12,40,22.30
2017,05,29,12,41,22.30
2017,05,29,12,42,22.20
2017,05,29,12,43,22.30
2017,05,29,12,44,22.30
2017,05,29,12,45,22.40
2017,05,29,12,46,22.50
2017,05,29,12,47,22.60
2017,05,29,12,48,22.70
2017,05,29,12,49,22.70
2017,05,29,12,50,22.70
2017,05,29,12,51,22.70
2017,05,29,12,52,22.70
2017,05,29,12,53,22.70
2017,05,29,12,54,22.80
2017,05,29,12,55,22.80
2017,05,29,12,56,22.80
2017,05,29,12,57,22.80
2017,05,29,12,58,22.90
2017,05,29,12,59,23.00
2017,05,29,13,00,23.10
2017,05,29,13,01,23.20
2017,05,29,13,02,23.30
2017,05,29,13,03,23.30
2017,05,29,13,04,23.30
2017,05,29,13,05,23.40
2017,05,29,13,06,23.60
2017,05,29,13,07,23.60
2017,05,29,13,08,23.70
2017,05,29,13,09,23.70
2017,05,29,13,10,23.60
2017,05,29,13,11,23.60
2017,05,29,13,12,23.60
2017,05,29,13,13,23.70
2017,05,29,13,14,23.70
2017,05,29,13,15,23.70
2017,05,29,13,16,23.60
2017,05,29,13,17,23.60
2017,05,29,13,18,23.70
2017,05,29,13,19,23.70
2017,05,29,13,20,23.70
2017,05,29,13,21,23.70
2017,05,29,13,22,23.70
2017,05,29,13,23,23.70
2017,05,29,13,24,23.70
2017,05,29,13,25,23.50
2017,05,29,13,26,23.40
2017,05,29,13,27,23.30
2017,05,29,13,28,23.30
2017,05,29,13,29,23.30
2017,05,29,13,30,23.30
2017,05,29,13,31,23.30
2017,05,29,13,32,23.30
2017,05,29,13,33,23.30
2017,05,29,13,34,23.30
2017,05,29,13,35,23.30
2017,05,29,13,36,23.20
2017,05,29,13,37,23.30
2017,05,29,13,38,23.30
2017,05,29,13,39,23.30
2017,05,29,13,40,23.30
2017,05,29,13,41,23.30
2017,05,29,13,42,23.40
2017,05,29,13,43,23.40
2017,05,29,13,44,23.30
2017,05,29,13,45,23.30
2017,05,29,13,46,23.30
2017,05,29,13,47,23.50
2017,05,29,13,48,23.60
2017,05,29,13,49,23.70
2017,05,29,13,50,23.80
2017,05,29,13,51,23.70
2017,05,29,13,52,23.80
2017,05,29,13,53,23.80
2017,05,29,13,54,23.80
2017,05,29,13,55,23.90
2017,05,29,13,56,24.00
2017,05,29,13,57,24.10
2017,05,29,13,58,24.20
2017,05,29,13,59,24.30
2017,05,29,14,00,24.30
2017,05,29,14,01,24.40
2017,05,29,14,02,24.40
2017,05,29,14,03,24.40
2017,05,29,14,04,24.30
2017,05,29,14,05,24.30
2017,05,29,14,06,24.20
2017,05,29,14,07,24.20
2017,05,29,14,08,24.20
2017,05,29,14,09,24.30
2017,05,29,14,10,24.30
2017,05,29,14,11,24.30
2017,05,29,14,12,24.30
2017,05,29,14,13,24.40
2017,05,29,14,14,24.50
2017,05,29,14,15,24.50
2017,05,29,14,16,24.60
2017,05,29,14,17,24.60
2017,05,29,14,18,24.50
2017,05,29,14,19,24.50
2017,05,29,14,20,24.50
2017,05,29,14,21,24.50
2017,05,29,14,22,24.60
2017,05,29,14,23,24.60
2017,05,29,14,24,24.70
2017,05,29,14,25,24.70
2017,05,29,14,26,24.70
2017,05,29,14,27,24.70
2017,05,29,14,28,24.60
2017,05,29,14,29,24.70
2017,05,29,14,30,24.70
2017,05,29,14,31,24.60
2017,05,29,14,32,24.60
2017,05,29,14,33,24.60
2017,05,29,14,34,24.60
2017,05,29,14,35,24.60
2017,05,29,14,36,24.50
2017,05,29,14,37,24.60
2017,05,29,14,38,24.60
2017,05,29,14,39,24.60
2017,05,29,14,40,24.70
2017,05,29,14,41,24.70
2017,05,29,14,42,24.80
2017,05,29,14,43,24.80
2017,05,29,14,44,24.80
2017,05,29,14,45,24.90
2017,05,29,14,46,24.90
2017,05,29,14,47,24.90
2017,05,29,14,48,25.00
2017,05,29,14,49,25.10
2017,05,29,14,50,25.20
2017,05,29,14,51,25.20
2017,05,29,14,52,25.20
2017,05,29,14,53,25.20
2017,05,29,14,54,25.20
2017,05,29,14,55,25.20
2017,05,29,14,56,25.10
2017,05,29,14,57,25.10
2017,05,29,14,58,25.00
2017,05,29,14,59,24.90
2017,05,29,15,00,24.90
2017,05,29,15,01,24.90
2017,05,29,15,02,24.90
2017,05,29,15,03,24.90
2017,05,29,15,04,24.90
2017,05,29,15,05,24.90
2017,05,29,15,06,25.10
2017,05,29,15,07,25.10
2017,05,29,15,08,25.20
2017,05,29,15,09,25.20
2017,05,29,15,10,25.20
2017,05,29,15,11,25.20
2017,05,29,15,12,25.30
2017,05,29,15,13,25.30
2017,05,29,15,14,25.40
2017,05,29,15,15,25.40
2017,05,29,15,16,25.50
2017,05,29,15,17,25.60
2017,05,29,15,18,25.70
2017,05,29,15,19,25.80
2017,05,29,15,20,25.90
2017,05,29,15,21,26.00
2017,05,29,15,22,26.00
2017,05,29,15,23,26.00
2017,05,29,15,24,26.00
2017,05,29,15,25,26.10
2017,05,29,15,26,26.10
2017,05,29,15,27,26.10
2017,05,29,15,28,26.20
2017,05,29,15,29,26.20
2017,05,29,15,30,26.20
2017,05,29,15,31,26.10
2017,05,29,15,32,26.20
2017,05,29,15,33,26.20
2017,05,29,15,34,26.30
2017,05,29,15,35,26.40
2017,05,29,15,36,26.50
2017,05,29,15,37,26.60
2017,05,29,15,38,26.60
2017,05,29,15,39,26.40
2017,05,29,15,40,26.30
2017,05,29,15,41,26.20
2017,05,29,15,42,26.20
2017,05,29,15,43,26.30
2017,05,29,15,44,26.40
2017,05,29,15,45,26.50
2017,05,29,15,46,26.60
2017,05,29,15,47,26.50
2017,05,29,15,48,26.30
2017,05,29,15,49,26.20
2017,05,29,15,50,26.10
2017,05,29,15,51,26.10
2017,05,29,15,52,26.00
2017,05,29,15,53,26.10
2017,05,29,15,54,26.10
2017,05,29,15,55,26.30
2017,05,29,15,56,26.30
2017,05,29,15,57,26.30
2017,05,29,15,58,26.20
2017,05,29,15,59,26.10
2017,05,29,16,00,26.20
2017,05,29,16,01,26.20
2017,05,29,16,02,26.20
2017,05,29,16,03,26.20
2017,05,29,16,04,26.10
2017,05,29,16,05,26.10
2017,05,29,16,06,26.00
2017,05,29,16,07,26.00
2017,05,29,16,08,26.10
2017,05,29,16,09,26.20
2017,05,29,16,10,26.20
2017,05,29,16,11,26.20
2017,05,29,16,12,26.20
2017,05,29,16,13,26.20
2017,05,29,16,14,26.20
2017,05,29,16,15,26.10
2017,05,29,16,16,26.20
2017,05,29,16,17,26.10
2017,05,29,16,18,26.10
2017,05,29,16,19,26.00
2017,05,29,16,20,26.00
2017,05,29,16,21,26.00
2017,05,29,16,22,26.00
2017,05,29,16,23,26.10
2017,05,29,16,24,26.20
2017,05,29,16,25,26.20
2017,05,29,16,26,26.20
2017,05,29,16,27,26.10
2017,05,29,16,28,26.10
2017,05,29,16,29,26.10
2017,05,29,16,30,26.20
2017,05,29,16,31,26.20
2017,05,29,16,32,26.20
2017,05,29,16,33,26.30
2017,05,29,16,34,26.30
2017,05,29,16,35,26.20
2017,05,29,16,36,26.20
2017,05,29,16,37,26.30
2017,05,29,16,38,26.30
2017,05,29,16,39,26.30
2017,05,29,16,40,26.20
2017,05,29,16,41,26.20
2017,05,29,16,42,26.30
2017,05,29,16,43,26.40
2017,05,29,16,44,26.50
2017,05,29,16,45,26.70
2017,05,29,16,46,26.80
2017,05,29,16,47,26.90
2017,05,29,16,48,27.00
2017,05,29,16,49,27.00
2017,05,29,16,50,26.90
2017,05,29,16,51,27.00
2017,05,29,16,52,26.90
2017,05,29,16,53,26.90
2017,05,29,16,54,26.80
2017,05,29,16,55,26.80
2017,05,29,16,56,26.80
2017,05,29,16,57,26.70
2017,05,29,16,58,26.60
2017,05,29,16,59,26.70
2017,05,29,17,00,26.70
2017,05,29,17,01,26.70
2017,05,29,17,02,26.70
2017,05,29,17,03,26.70
2017,05,29,17,04,26.70
2017,05,29,17,05,26.60
2017,05,29,17,06,26.60
2017,05,29,17,07,26.60
2017,05,29,17,08,26.60
2017,05,29,17,09,26.60
2017,05,29,17,10,26.60
2017,05,29,17,11,26.60
2017,05,29,17,12,26.60
2017,05,29,17,13,26.60
2017,05,29,17,14,26.70
2017,05,29,17,15,26.60
2017,05,29,17,16,26.60
2017,05,29,17,17,26.50
2017,05,29,17,18,26.40
2017,05,29,17,19,26.40